Showing default

GHOST-1, 56195

Orbit data source: Space-Track

GHOST-1, 56195 is a payload satellite owned by Orbital Sidekick (US) in SSO that was launched on Sat, 15 Apr 2023 UTC via an FALCON 9 launch vehicle from the Air Force Western Test Range (AFWTR). Payload-class satellites include a variety of spacecraft equipped with specific instruments for various scientific and technological missions. These include communications satellites like Starlink; space stations such as the ISS; scientific satellites like the Hubble; Earth observation satellites from companies like Planet Labs, Umbra, and HawkEye 360; GPS; miniature CubeSats for education and research; and military/defense satellites.

Loading next visibility...
Identifier
56195, 2023-054T
Orbit
SSO
Country
Flag of USUS
Related business
Manufacturer
Astro Digital
Mission
Operational Commercial Imaging
Bus & Motor
CORVUS-XL, Unknown motor
Mass
85 kg wet, 85 kg dry
Launch date (UTC)
2023-04-15 (3 years ago)
Launch vehicle
FALCON 9
Launch site
Air Force Western Test Range (AFWTR)
Object type
Payload
Rocket body
Debris
Shape & HBR
Box + 1 Dish, 1.0 m
Radar Cross Section
0.425 m², Medium (>0.1 m² and < 1m²)

Expand to show TLE details & history
Last TLE update: 7 hours ago

TLE from 7 hours ago
0 GHOST-1
1 56195U 23054T   25310.30603796  .00061808  00000-0  72446-3 0  9994
2 56195  97.3103 216.6880 0008127 105.0320 255.1838 15.61289166144287
Epoch: 2025-11-06T07:20Z
TLE epoch observation values (Epoch: 2025-11-06T07:20:41.679Z)
Latitude
-0°
Longitude
60.74809°
Altitude
388.491 km
Speed
7.676 km/s
True Right ascension
14h 26m 45s
True Declination
0° 00' 00"
Sunlit
Object was in daylight at epoch
Visualization orbit readout
Latitude
Unknown
Longitude
Unknown
Altitude
Unknown
Speed
Unknown
Apparent Right ascension
Unknown
Apparent Declination
Unknown
Sunlit
N/A
Visualization observer readout
Local Sidereal Time
10:38:12
Azimuth
Unknown
Elevation
Unknown
Doppler factor
Unknown
Orbital elements
Apogee altitude
386.332 km
Perigee altitude
375.346 km
Semi-major axis
6,758.976 km
Eccentricity
0.00081
Inclination
97.3103°
RAAN
216.688°
Arg. of periapsis
105.032°
True anomaly
255.09379°
Mean anomaly
255.1838°
Eccentric anomaly
255.13879°
Mean motion
3.90591 °/min
Orbital period
92.17 mins
BSTAR
0.00072446
Loading maneuver chart data...
Computing Atmospheric mass density...
Loading historical data...
Loading historical data...
Loading historical data...
Loading historical data...
Loading historical data...
Loading historical data...
Loading historical data...

Documentation

Showing up to 5 results
|